Regional Weather Roundup
Issued by NWS Little Rock, AR

Home | Current Version | Previous Version | Text Only | Print | Product List | Glossary On
Versions: 1 2 3 4 5 6 7 8 9 10 11 12 13 14 15 16 17 18 19 20 21 22 23 24 25 26 27 28 29 30 31 32 33 34 35 36 37 38 39 40 41 42 43 44 45 46 47 48 49 50
000
ASUS44 KLZK 051305
RWRLZK

WEATHER ROUNDUP FOR ARKANSAS
NATIONAL WEATHER SERVICE LITTLE ROCK AR
700 AM CST MON DEC 05 2016

NOTE: "FAIR" INDICATES FEW OR NO CLOUDS BELOW 12,000 FEET WITH NO
SIGNIFICANT WEATHER AND/OR OBSTRUCTIONS TO VISIBILITY.

ARZ001-003-010-029-051400-
NORTHWEST ARKANSAS

CITY           SKY/WX    TMP DP  RH WIND       PRES   REMARKS
FAYETTEVILLE   FOG       28  28 100 CALM      29.95F VSB 1/4
FORT SMITH     FOG       37  36  96 E6        29.97F VSB 1/2
HARRISON       FOG       30  30 100 E3        29.96F VSB 1/4
BENTONVILLE    CLOUDY    34  27  75 SE7       29.94F WCI  28
ROGERS         CLOUDY    34  33  96 SE6       29.95F VSB 1/4 WCI  29
SILOAM SPGS    CLOUDY    30  28  93 E5        29.93F WCI  25
HIGHFILL       PTCLDY    31  30  96 E3        29.93F FOG
SPRINGDALE     MOCLDY   N/A N/A N/A CALM      29.96F FOG
$$

ARZ004-005-016-051400-
NORTH CENTRAL ARKANSAS

CITY           SKY/WX    TMP DP  RH WIND       PRES   REMARKS
BATESVILLE     MOCLDY    34  30  86 NW3       30.03S
FLIPPIN        CLOUDY    32  28  86 CALM      29.97F VSB 1/4
MTN HOME       FOG       31  31 100 E3        29.98F VSB 1/2
$$

ARZ040-041-051400-
WEST CENTRAL ARKANSAS

CITY           SKY/WX    TMP DP  RH WIND       PRES   REMARKS
MENA           CLOUDY    43  41  93 NE3       29.94F
MOUNT IDA      FOG       41  40  96 CALM      29.94S VSB 1
$$

ARZ009-017-025-026-028-051400-
NORTHEAST ARKANSAS

CITY           SKY/WX    TMP DP  RH WIND       PRES   REMARKS
CORNING        FAIR      36  36 100 NE7       30.03F
JONESBORO      MOCLDY    38  36  92 NE6       30.02F
NEWPORT        MOCLDY    37  37 100 N5        30.03S FOG
WALNUT RIDGE   CLOUDY    34  30  86 NE5       30.03S WCI  30
BLYTHEVILLE    PTCLDY    41  36  82 E3        30.04F
$$

ARZ022-023-033-042-044-051400-
CENTRAL ARKANSAS

CITY           SKY/WX    TMP DP  RH WIND       PRES   REMARKS
LITTLE ROCK    CLOUDY    40  40 100 NE5       30.01R
N LITTLE ROCK    N/A     40  38  96 E6        30.02R
JACKSONVILLE   CLOUDY    40  40 100 NE3       30.00R
SEARCY         CLOUDY    39  39 100 NE5       30.02F
HOT SPRINGS    MOCLDY    43  41  93 E5        29.97S
RUSSELLVILLE   MOCLDY    36  36 100 S3        29.99S FOG
CLINTON        CLOUDY    34  34 100 CALM      30.00F
$$

ARZ036-051400-
EAST ARKANSAS

CITY           SKY/WX    TMP DP  RH WIND       PRES   REMARKS
WEST MEMPHIS   CLOUDY    42  38  85 E8        30.01S
$$

ARZ050-053-066-070-073-051400-
SOUTHWEST ARKANSAS

CITY           SKY/WX    TMP DP  RH WIND       PRES   REMARKS
ARKADELPHIA    FAIR      44  43  96 NE5       29.98F
CAMDEN         MOCLDY    45  41  87 NE5       29.98R
TEXARKANA      MOCLDY    45  42  89 NE7       29.95R
EL DORADO      CLOUDY    44  43  96 NE8       29.96R
DE QUEEN       CLOUDY    43  42  97 E5        29.94F
$$

ARZ056-057-069-051400-
SOUTHEAST ARKANSAS

CITY           SKY/WX    TMP DP  RH WIND       PRES   REMARKS
PINE BLUFF     LGT RAIN  43  41  93 N7        30.00R
STUTTGART      PTCLDY    43  36  75 NE9       30.00R
MONTICELLO     CLOUDY    45  42  89 E9        29.96F

$$





USA.gov is the U.S. government's official web portal to all federal, state and local government web resources and services.